Flag for U.S.A. Weather past 2 weeks in Youngstown, Ohio, U.S.A.

Now
53 °F

Fog.


Feels Like: 53 °F
Forecast: 53 / 82 °F
Wind: 3 mph from Southeast

Location: Youngstown-Warren Regional Airport

Current Time: Aug 29, 2015 at 6:08:29 AM

Latest Report: Aug 29, 2015 at 4:51 AM


Visibility: 8 mi

Pressure: 30.14 "Hg

Humidity: 96%

Dew point: 52 °F

Location of YoungstownLocation

Historic Weather in Youngstown — Graph

°F

Youngstown temperature yesterday

Maximum temperature yesterday: 76 °F (at 3:51 PM)
Minimum temperature yesterday: 50 °F (at 6:51 AM)
Average temperature yesterday: 63 °F

Past Weeks' High & Low Weather Summary

 TemperatureHumidityPressure
High88 °F (Aug 17, 3:51 PM)100% (Aug 16, 5:51 AM)30.23 "Hg (Aug 16, 5:51 AM)
Low49 °F (Aug 22, 4:51 AM)38% (Aug 23, 3:51 PM)29.77 "Hg (Aug 20, 3:51 AM)
Average68 °F72%30.05 "Hg
* Reported Aug 14 4:51 AM — Aug 29 4:51 AM, Youngstown, Weather by CustomWeather, © 2015

Note: Actual official high and low records may vary slightly from our data, if they occured in-between our weather recording intervals... More about our weather records

Advertising

Youngstown weather history for previous 24 hours

 ConditionsComfort  
Time TempWeatherWind HumidityBarometerVisibility
4:51 AM
Sat, Aug 29
53 °FFog.3 mph96%30.14 "Hg8 mi
3:51 AM54 °FFog.7 mph97%30.15 "Hg6 mi
2:51 AM52 °FFog.5 mph100%30.16 "Hg5 mi
1:51 AM57 °FFog.No wind93%30.17 "Hg6 mi
12:51 AM57 °FPassing clouds.6 mph96%30.18 "Hg10 mi
11:51 PM
Fri, Aug 28
58 °FPartly cloudy.7 mph93%30.16 "Hg10 mi
10:51 PM60 °FPartly cloudy.3 mph90%30.18 "Hg10 mi
9:51 PM64 °FMostly cloudy.9 mph81%30.17 "Hg10 mi
8:51 PM66 °FMore clouds than sun.8 mph78%30.16 "Hg10 mi
7:51 PM68 °FMostly cloudy.6 mph73%30.15 "Hg10 mi
6:51 PM73 °FBroken clouds.5 mph55%30.15 "Hg10 mi
5:51 PM75 °FScattered clouds.6 mph48%30.15 "Hg10 mi
4:51 PM76 °FPartly sunny.5 mph45%30.15 "Hg10 mi
3:51 PM76 °FPartly sunny.No wind45%30.17 "Hg10 mi
2:51 PM74 °FPartly sunny.3 mph48%30.19 "Hg10 mi
1:51 PM75 °FPartly sunny.3 mph48%30.20 "Hg10 mi
12:51 PM73 °FPartly sunny.6 mph53%30.22 "Hg10 mi
11:51 AM70 °FPartly sunny.No wind59%30.23 "Hg10 mi
10:51 AM69 °FPassing clouds.No wind63%30.23 "Hg10 mi
9:51 AM65 °FSunny.5 mph68%30.22 "Hg10 mi
8:51 AM60 °FScattered clouds.5 mph86%30.23 "Hg10 mi
7:51 AM54 °FFog.No wind93%30.22 "Hg4 mi
6:51 AM50 °FFog.No wind96%30.20 "Hg5 mi
Weather by CustomWeather, © 2015

See weather overviewHow to use our weather pages